Simultaneous Nadir Overpasses (SNOs) Predictions

Prediction of SNOs between NOAA-19 and METOP-C Satellite Orbit:

Table of predicted SNOs for the next 14.0 days since TLE Epoch: 1/6/2024
Index Date (NOAA-19) Time (NOAA-19) Lat,Lon (NOAA-19) SZA (NOAA-19 ) Date (METOP-C) Time (METOP-C) Lat,Lon (METOP-C) SZA (METOP-C ) Distance(km) Time Diff (sec)
1 01/13/2024 05:06:53 -80.66, -46.81 76.81 01/13/2024 05:08:01 -80.66, -46.83 76.79 0.35 68
2 01/13/2024 05:57:46 80.67, 120.69 103.22 01/13/2024 05:58:42 80.67, 120.63 103.23 1.20 56
3 01/13/2024 06:48:51 -80.66, -72.13 76.80 01/13/2024 06:49:22 -80.67, -71.97 76.78 2.97 31
4 01/13/2024 07:39:44 80.67, 95.38 103.22 01/13/2024 07:40:03 80.68, 95.49 103.24 2.11 19
5 01/13/2024 08:30:48 -80.69, -97.10 76.76 01/13/2024 08:30:43 -80.68, -97.11 76.76 0.40 5
6 01/13/2024 09:21:41 80.69, 70.41 103.27 01/13/2024 09:21:24 80.69, 70.35 103.25 1.20 17
7 01/13/2024 10:12:45 -80.71,-122.06 76.71 01/13/2024 10:12:03 -80.72,-121.91 76.70 2.97 42



Historial Predications of SNOs between NOAA-19 and METOP-C
